SNAP-3 ALICE

Last updated on Sat Sep 19 2026 00:03:46 GMT+0000 (Coordinated Universal Time)

1 40970U 15058G 26261.09719670 .04983168 74534-5 17818-2 0 9999 2 40970 64.7263 135.1831 0016469 257.8564 102.0768 16.24181982131523
UTC large
Height (km)
Speed (km/s)
/
Latitude / Longitude
Inclination (degrees)
Orbital Period (minutes)
Azimuth
Elevation
Range (km)
Doppler Factor

Next 0 passes for location: London (51.5072 / 0.1276)

No passes found over London.
SNAP-3 ALICE